DAL121 KMSP-RJTT

Flight info

Callsign DAL121
Flight time N/A
Altitude 34000
Route BRNRD DCT 50N096W 54N100W 55N101W 60N108W 61N110W 63N120W 65N130W DCT GOATS DCT FYU DCT OME R338 NATES DCT HEDMI M523 IPGUD Y800 ESNIP Y810 AKRIT Y807 POLIX
Aircraft A359/H-SDE2E3GHIJ3J4J5LM1ORWXY/LB1D1

Departure

Time N/A
Airport Minneapolis–Saint Paul International Airport / Wold–Chamberlain Field (KMSP)

Arrival

Time 2026-05-04 00:43
Airport Tokyo Haneda International Airport (RJTT)
Time Latitude Longitude Altitude Speed Heading
2026-05-03 20:15 57.66919 176.73347 34013 ft 474 kts 225°
2026-05-03 20:15 57.62303 176.64619 34013 ft 474 kts 225°
2026-05-03 20:16 57.57668 176.55896 34013 ft 474 kts 225°
2026-05-03 20:16 57.53030 176.47205 34013 ft 474 kts 225°
2026-05-03 20:17 57.48428 176.38564 34013 ft 474 kts 226°
2026-05-03 20:17 57.43841 176.29767 34013 ft 474 kts 225°
2026-05-03 20:18 57.39284 176.21046 34013 ft 474 kts 225°
2026-05-03 20:18 57.34674 176.12299 34013 ft 474 kts 225°
2026-05-03 20:19 57.30090 176.03653 34013 ft 474 kts 225°
2026-05-03 20:19 57.25459 175.94961 34013 ft 474 kts 225°
2026-05-03 20:20 57.20841 175.86327 34013 ft 474 kts 225°
2026-05-03 20:20 57.16230 175.77740 34013 ft 474 kts 225°
2026-05-03 20:21 57.11599 175.69148 34014 ft 474 kts 225°
2026-05-03 20:21 57.06953 175.60561 34014 ft 474 kts 225°
2026-05-03 20:22 57.02310 175.52011 34014 ft 474 kts 225°
2026-05-03 20:22 56.97659 175.43478 34014 ft 474 kts 225°
2026-05-03 20:23 56.93009 175.34981 34014 ft 474 kts 224°
2026-05-03 20:23 56.88354 175.26489 34013 ft 474 kts 224°
2026-05-03 20:24 56.83687 175.18056 34014 ft 474 kts 224°
2026-05-03 20:24 56.79013 175.09631 34013 ft 474 kts 224°
2026-05-03 20:25 56.74315 175.01181 34013 ft 474 kts 224°
2026-05-03 20:25 56.69658 174.92828 34013 ft 474 kts 224°
2026-05-03 20:26 56.64951 174.84418 34013 ft 474 kts 224°
2026-05-03 20:26 56.60269 174.76080 34013 ft 474 kts 224°
2026-05-03 20:27 56.55582 174.67764 34013 ft 474 kts 224°
2026-05-03 20:27 56.50853 174.59405 34013 ft 474 kts 224°
2026-05-03 20:28 56.46160 174.51138 34013 ft 474 kts 224°
2026-05-03 20:28 56.41431 174.42841 34013 ft 474 kts 224°
2026-05-03 20:29 56.36731 174.34622 34013 ft 474 kts 224°
2026-05-03 20:29 56.32013 174.26375 34013 ft 474 kts 224°
2026-05-03 20:30 56.27287 174.18150 34013 ft 474 kts 224°
2026-05-03 20:30 56.22543 174.09935 34013 ft 474 kts 224°
2026-05-03 20:31 56.17798 174.01756 34013 ft 474 kts 224°
2026-05-03 20:31 56.13035 173.93578 34013 ft 474 kts 224°
2026-05-03 20:32 56.08280 173.85442 34013 ft 474 kts 224°
2026-05-03 20:32 56.03525 173.77335 34014 ft 474 kts 224°
2026-05-03 20:33 55.98776 173.69269 34014 ft 474 kts 224°
2026-05-03 20:33 55.94007 173.61195 34014 ft 474 kts 224°
2026-05-03 20:34 55.89241 173.53160 34014 ft 474 kts 224°
2026-05-03 20:34 55.84414 173.45100 34013 ft 474 kts 223°
2026-05-03 20:35 55.79618 173.37102 34013 ft 474 kts 224°
2026-05-03 20:35 55.74850 173.29140 34013 ft 475 kts 223°
2026-05-03 20:36 55.70037 173.21114 34013 ft 475 kts 223°
2026-05-03 20:36 55.65243 173.13161 34013 ft 475 kts 223°
2026-05-03 20:37 55.60421 173.05197 34013 ft 475 kts 223°
2026-05-03 20:37 55.55594 172.97255 34013 ft 475 kts 223°
2026-05-03 20:38 55.50780 172.89363 34013 ft 475 kts 223°
2026-05-03 20:38 55.45936 172.81450 34013 ft 475 kts 223°
2026-05-03 20:39 55.41132 172.73631 34013 ft 475 kts 223°
2026-05-03 20:39 55.36281 172.65762 34013 ft 475 kts 223°
2026-05-03 20:40 55.31435 172.57928 34013 ft 475 kts 223°
2026-05-03 20:40 55.26585 172.50119 34014 ft 475 kts 223°
2026-05-03 20:41 55.21699 172.42278 34014 ft 475 kts 223°
2026-05-03 20:41 55.16859 172.34537 34014 ft 475 kts 222°
2026-05-03 20:42 55.11984 172.26744 34013 ft 476 kts 222°
2026-05-03 20:42 55.07114 172.19002 34013 ft 476 kts 222°
2026-05-03 20:43 55.02231 172.11287 34013 ft 476 kts 222°
2026-05-03 20:43 54.97338 172.03593 34013 ft 476 kts 222°
2026-05-03 20:44 54.92377 171.95920 34013 ft 476 kts 220°
2026-05-03 20:44 54.87303 171.88602 34013 ft 476 kts 219°
2026-05-03 20:45 54.82207 171.81319 34013 ft 476 kts 219°
2026-05-03 20:45 54.77138 171.74098 34013 ft 476 kts 219°
2026-05-03 20:46 54.72006 171.66809 34013 ft 476 kts 219°
2026-05-03 20:46 54.66903 171.59586 34013 ft 476 kts 219°
2026-05-03 20:47 54.61806 171.52393 34013 ft 476 kts 219°
2026-05-03 20:47 54.56665 171.45160 34013 ft 476 kts 219°
2026-05-03 20:48 54.51548 171.37988 34013 ft 476 kts 219°
2026-05-03 20:48 54.46440 171.30839 34013 ft 477 kts 219°
2026-05-03 20:49 54.41310 171.23666 34014 ft 479 kts 219°
2026-05-03 20:49 54.36090 171.16411 34013 ft 487 kts 219°
2026-05-03 20:50 54.30836 171.09145 34013 ft 488 kts 219°
2026-05-03 20:50 54.25553 171.01862 34013 ft 488 kts 219°
2026-05-03 20:51 54.20280 170.94620 34013 ft 488 kts 219°
2026-05-03 20:51 54.15001 170.87393 34013 ft 488 kts 219°
2026-05-03 20:52 54.09706 170.80168 34013 ft 488 kts 219°
2026-05-03 20:52 54.04416 170.72974 34014 ft 488 kts 219°
2026-05-03 20:53 53.99126 170.65804 34014 ft 488 kts 219°
2026-05-03 20:53 53.93838 170.58662 34014 ft 488 kts 219°
2026-05-03 20:54 53.88544 170.51538 34014 ft 488 kts 218°
2026-05-03 20:54 53.80541 170.40866 34013 ft 488 kts 218°
2026-05-03 20:55 53.75379 170.33987 34013 ft 488 kts 218°
2026-05-03 20:55 53.70032 170.26846 34013 ft 488 kts 218°
2026-05-03 20:56 53.64753 170.19829 34013 ft 488 kts 218°
2026-05-03 20:56 53.59398 170.12746 34013 ft 488 kts 218°
2026-05-03 20:57 53.54090 170.05757 34013 ft 488 kts 218°
2026-05-03 20:57 53.48736 169.98735 34013 ft 488 kts 218°
2026-05-03 20:58 53.43419 169.91789 34013 ft 488 kts 218°
2026-05-03 20:58 53.38059 169.84816 34013 ft 488 kts 218°
2026-05-03 20:59 53.32753 169.77734 34013 ft 488 kts 221°
2026-05-03 20:59 53.27940 169.69794 34013 ft 488 kts 229°
2026-05-03 21:00 53.25075 169.63965 34013 ft 488 kts 233°
2026-05-03 21:00 53.20271 169.51222 34014 ft 488 kts 242°
2026-05-03 21:01 53.17097 169.41283 34014 ft 488 kts 242°
2026-05-03 21:01 53.13902 169.31306 34014 ft 488 kts 242°
2026-05-03 21:02 53.10716 169.21411 34013 ft 488 kts 242°
2026-05-03 21:02 53.07484 169.11443 34013 ft 488 kts 241°
2026-05-03 21:03 53.04274 169.01602 34013 ft 488 kts 241°
2026-05-03 21:03 53.01026 168.91695 34013 ft 488 kts 241°
2026-05-03 21:04 52.97764 168.81804 34014 ft 488 kts 241°
2026-05-03 21:04 52.94520 168.72009 34014 ft 488 kts 241°
2026-05-03 21:05 52.91259 168.62120 34014 ft 488 kts 242°
2026-05-03 21:05 52.88012 168.52322 34013 ft 488 kts 241°
2026-05-03 21:06 52.84759 168.42645 34013 ft 488 kts 241°
2026-05-03 21:06 52.81475 168.32890 34013 ft 488 kts 240°
2026-05-03 21:07 52.78178 168.23091 34013 ft 488 kts 240°
2026-05-03 21:07 52.74873 168.13309 34013 ft 488 kts 240°
2026-05-03 21:08 52.71563 168.03563 34013 ft 488 kts 240°
2026-05-03 21:08 52.68248 167.93846 34013 ft 488 kts 240°
2026-05-03 21:09 52.64921 167.84131 34013 ft 488 kts 240°
2026-05-03 21:09 52.61594 167.74455 34013 ft 488 kts 240°
2026-05-03 21:10 52.58236 167.64728 34013 ft 488 kts 240°
2026-05-03 21:10 52.54894 167.55083 34013 ft 488 kts 240°
2026-05-03 21:11 52.51517 167.45375 34013 ft 488 kts 240°
2026-05-03 21:11 52.48158 167.35756 34013 ft 488 kts 240°
2026-05-03 21:12 52.44780 167.26097 34013 ft 488 kts 240°
2026-05-03 21:12 52.41425 167.16540 34013 ft 488 kts 240°
2026-05-03 21:13 52.38015 167.06879 34013 ft 488 kts 240°
2026-05-03 21:13 52.34640 166.97359 34013 ft 488 kts 240°
2026-05-03 21:14 52.31218 166.87746 34013 ft 488 kts 240°
2026-05-03 21:14 52.27815 166.78221 34013 ft 488 kts 240°
2026-05-03 21:15 52.24382 166.68651 34014 ft 488 kts 240°
2026-05-03 21:15 52.20966 166.59164 34014 ft 488 kts 240°
2026-05-03 21:16 52.17525 166.49641 34014 ft 488 kts 240°
2026-05-03 21:16 52.14063 166.40102 34014 ft 488 kts 240°
2026-05-03 21:17 52.11204 166.32243 34014 ft 488 kts 239°
2026-05-03 21:17 52.07181 166.21201 34013 ft 489 kts 239°
2026-05-03 21:18 52.03712 166.11732 34013 ft 489 kts 239°
2026-05-03 21:18 52.00225 166.02260 34013 ft 489 kts 239°
2026-05-03 21:19 51.96735 165.92816 34013 ft 489 kts 239°
2026-05-03 21:19 51.93243 165.83403 34014 ft 489 kts 239°
2026-05-03 21:20 51.89750 165.74025 34014 ft 489 kts 239°
2026-05-03 21:20 51.86220 165.64658 34013 ft 489 kts 239°
2026-05-03 21:21 51.82687 165.55298 34013 ft 489 kts 239°
2026-05-03 21:21 51.79170 165.45982 34013 ft 489 kts 239°
2026-05-03 21:22 51.75648 165.36670 34013 ft 489 kts 239°
2026-05-03 21:22 51.72107 165.27313 34013 ft 489 kts 238°
2026-05-03 21:23 51.68580 165.18025 34013 ft 489 kts 238°
2026-05-03 21:23 51.65024 165.08708 34013 ft 489 kts 238°
2026-05-03 21:24 51.61458 164.99408 34013 ft 489 kts 238°
2026-05-03 21:24 51.57913 164.90199 34013 ft 489 kts 238°
2026-05-03 21:25 51.54335 164.80939 34013 ft 489 kts 238°
2026-05-03 21:25 51.50754 164.71704 34013 ft 489 kts 238°
2026-05-03 21:26 51.47150 164.62445 34013 ft 489 kts 238°
2026-05-03 21:26 51.43554 164.53242 34013 ft 489 kts 238°
2026-05-03 21:27 51.39948 164.44045 34013 ft 489 kts 238°
2026-05-03 21:27 51.36340 164.34883 34014 ft 489 kts 237°
2026-05-03 21:28 51.32729 164.25726 34013 ft 489 kts 237°
2026-05-03 21:28 51.29105 164.16595 34013 ft 489 kts 237°
2026-05-03 21:29 51.25467 164.07472 34013 ft 489 kts 237°
2026-05-03 21:29 51.21841 163.98328 34013 ft 489 kts 238°
2026-05-03 21:30 51.18214 163.89210 34013 ft 489 kts 237°
2026-05-03 21:30 51.14560 163.80095 34014 ft 489 kts 237°
2026-05-03 21:31 51.10899 163.71017 34014 ft 489 kts 237°
2026-05-03 21:31 51.07238 163.61977 34014 ft 489 kts 237°
2026-05-03 21:32 51.03564 163.52936 34014 ft 489 kts 237°
2026-05-03 21:32 50.99880 163.43901 34014 ft 489 kts 237°
2026-05-03 21:33 50.96199 163.34907 34014 ft 489 kts 237°
2026-05-03 21:33 50.92482 163.25835 34013 ft 488 kts 237°
2026-05-03 21:34 50.88794 163.16875 34013 ft 488 kts 236°
2026-05-03 21:34 50.85055 163.07903 34013 ft 488 kts 236°
2026-05-03 21:35 50.81340 162.98991 34013 ft 488 kts 237°
2026-05-03 21:35 50.77607 162.90039 34013 ft 488 kts 237°
2026-05-03 21:36 50.73877 162.81117 34013 ft 488 kts 237°
2026-05-03 21:36 50.70138 162.72201 34013 ft 488 kts 237°
2026-05-03 21:37 50.66407 162.63336 34013 ft 488 kts 237°
2026-05-03 21:37 50.62655 162.54448 34013 ft 488 kts 237°
2026-05-03 21:38 50.58906 162.45596 34013 ft 488 kts 237°
2026-05-03 21:38 50.55135 162.36723 34013 ft 488 kts 237°
2026-05-03 21:39 50.51367 162.27869 34013 ft 488 kts 236°
2026-05-03 21:39 50.47604 162.19047 34013 ft 488 kts 236°
2026-05-03 21:40 50.43815 162.10214 34013 ft 488 kts 236°
2026-05-03 21:40 50.40028 162.01421 34013 ft 488 kts 236°
2026-05-03 21:41 50.36234 161.92642 34013 ft 488 kts 236°
2026-05-03 21:41 50.32431 161.83876 34013 ft 488 kts 236°
2026-05-03 21:42 50.28635 161.75153 34013 ft 488 kts 236°
2026-05-03 21:42 50.24820 161.66415 34014 ft 488 kts 236°
2026-05-03 21:43 50.20978 161.57645 34014 ft 488 kts 236°
2026-05-03 21:43 50.17157 161.48953 34014 ft 488 kts 236°
2026-05-03 21:44 50.13318 161.40253 34014 ft 488 kts 236°
2026-05-03 21:44 50.09473 161.31560 34014 ft 488 kts 235°
2026-05-03 21:45 50.05634 161.22888 34013 ft 488 kts 235°
2026-05-03 21:45 50.01796 161.14265 34013 ft 488 kts 235°
2026-05-03 21:46 49.97929 161.05620 34013 ft 488 kts 235°
2026-05-03 21:46 49.94047 160.96982 34013 ft 488 kts 235°
2026-05-03 21:47 49.90173 160.88400 34014 ft 488 kts 235°
2026-05-03 21:47 49.86249 160.79791 34013 ft 488 kts 235°
2026-05-03 21:48 49.82379 160.71188 34013 ft 488 kts 236°
2026-05-03 21:48 49.78553 160.62566 34013 ft 488 kts 236°
2026-05-03 21:49 49.74697 160.53934 34013 ft 488 kts 236°
2026-05-03 21:49 49.70824 160.45316 34013 ft 488 kts 236°
2026-05-03 21:50 49.66973 160.36781 34013 ft 488 kts 236°
2026-05-03 21:50 49.63084 160.28172 34013 ft 488 kts 235°
2026-05-03 21:51 49.59211 160.19624 34013 ft 488 kts 234°
2026-05-03 21:51 49.55319 160.11081 34013 ft 488 kts 234°
2026-05-03 21:52 49.51436 160.02593 34013 ft 488 kts 234°
2026-05-03 21:52 49.47518 159.94061 34013 ft 488 kts 234°
2026-05-03 21:53 49.43615 159.85597 34013 ft 488 kts 234°
2026-05-03 21:53 49.39668 159.77078 34013 ft 488 kts 234°
2026-05-03 21:54 49.35753 159.68642 34013 ft 488 kts 234°
2026-05-03 21:54 49.31749 159.60295 34013 ft 488 kts 233°
2026-05-03 21:55 49.27679 159.51994 34014 ft 488 kts 233°
2026-05-03 21:55 49.23579 159.43675 34014 ft 488 kts 233°
2026-05-03 21:56 49.19512 159.35446 34014 ft 488 kts 233°
2026-05-03 21:56 49.15434 159.27193 34013 ft 488 kts 232°
2026-05-03 21:57 49.11340 159.18935 34013 ft 488 kts 232°
2026-05-03 21:57 49.07234 159.10690 34013 ft 488 kts 232°
2026-05-03 21:58 49.03141 159.02504 34013 ft 488 kts 232°
2026-05-03 21:58 48.99017 158.94284 34013 ft 488 kts 232°
2026-05-03 21:59 48.94907 158.86116 34014 ft 488 kts 232°
2026-05-03 21:59 48.90797 158.77975 34014 ft 488 kts 232°
2026-05-03 22:00 48.86646 158.69817 34013 ft 488 kts 232°
2026-05-03 22:00 48.82497 158.61700 34013 ft 488 kts 232°
2026-05-03 22:01 48.78329 158.53543 34013 ft 488 kts 232°
2026-05-03 22:01 48.74193 158.45458 34013 ft 488 kts 232°
2026-05-03 22:02 48.70029 158.37335 34013 ft 488 kts 232°
2026-05-03 22:02 48.65891 158.29269 34013 ft 488 kts 232°
2026-05-03 22:03 48.61743 158.21196 34013 ft 488 kts 232°
2026-05-03 22:03 48.57570 158.13113 34013 ft 488 kts 232°
2026-05-03 22:04 48.53402 158.05075 34013 ft 488 kts 232°
2026-05-03 22:04 48.49224 157.97043 34013 ft 488 kts 232°
2026-05-03 22:05 48.45027 157.89000 34013 ft 488 kts 232°
2026-05-03 22:05 48.40830 157.80980 34013 ft 488 kts 232°
2026-05-03 22:06 48.36653 157.73022 34013 ft 488 kts 232°
2026-05-03 22:06 48.32437 157.65015 34013 ft 488 kts 232°
2026-05-03 22:07 48.28241 157.57069 34014 ft 488 kts 232°
2026-05-03 22:07 48.24012 157.49085 34014 ft 488 kts 232°
2026-05-03 22:08 48.19784 157.41126 34014 ft 488 kts 232°
2026-05-03 22:08 48.15582 157.33235 34014 ft 488 kts 231°
2026-05-03 22:09 48.11343 157.25273 34013 ft 489 kts 231°
2026-05-03 22:10 48.05003 157.13426 34013 ft 489 kts 231°
2026-05-03 22:10 48.00745 157.05513 34013 ft 489 kts 231°
2026-05-03 22:11 47.96509 156.97664 34013 ft 489 kts 231°
2026-05-03 22:11 47.92252 156.89800 34013 ft 489 kts 231°
2026-05-03 22:12 47.88002 156.81988 34013 ft 489 kts 231°
2026-05-03 22:12 47.83696 156.74138 34013 ft 489 kts 231°
2026-05-03 22:13 47.79426 156.66350 34013 ft 489 kts 231°
2026-05-03 22:13 47.75142 156.58540 34013 ft 489 kts 231°
2026-05-03 22:14 47.70861 156.50749 34013 ft 489 kts 231°
2026-05-03 22:14 47.66569 156.42960 34013 ft 489 kts 231°
2026-05-03 22:15 47.62272 156.35182 34013 ft 489 kts 231°
2026-05-03 22:15 47.58098 156.27622 34013 ft 489 kts 230°
2026-05-03 22:16 47.53804 156.19869 34013 ft 489 kts 230°
2026-05-03 22:16 47.49493 156.12122 34013 ft 489 kts 230°
2026-05-03 22:17 47.45187 156.04411 34013 ft 489 kts 230°
2026-05-03 22:17 47.40872 155.96709 34013 ft 489 kts 230°
2026-05-03 22:18 47.36541 155.89002 34013 ft 489 kts 230°
2026-05-03 22:18 47.32200 155.81297 34013 ft 489 kts 230°
2026-05-03 22:19 47.27888 155.73668 34013 ft 489 kts 230°
2026-05-03 22:19 47.23533 155.65982 34014 ft 489 kts 230°
2026-05-03 22:20 47.19178 155.58322 34014 ft 489 kts 230°
2026-05-03 22:20 47.14848 155.50723 34014 ft 489 kts 230°
2026-05-03 22:21 47.10486 155.43091 34014 ft 489 kts 230°
2026-05-03 22:21 47.06132 155.35494 34014 ft 489 kts 230°
2026-05-03 22:22 47.01765 155.27872 34013 ft 489 kts 230°
2026-05-03 22:22 46.97408 155.20290 34013 ft 489 kts 230°
2026-05-03 22:23 46.93029 155.12705 34013 ft 489 kts 230°
2026-05-03 22:23 46.88665 155.05177 34013 ft 489 kts 229°
2026-05-03 22:24 46.84262 154.97653 34013 ft 489 kts 229°
2026-05-03 22:24 46.79858 154.90128 34013 ft 489 kts 230°
2026-05-03 22:25 46.75449 154.82593 34013 ft 489 kts 230°
2026-05-03 22:25 46.71038 154.75070 34013 ft 489 kts 230°
2026-05-03 22:26 46.66639 154.67584 34013 ft 489 kts 230°
2026-05-03 22:26 46.62249 154.60133 34013 ft 489 kts 230°
2026-05-03 22:27 46.57820 154.52640 34013 ft 489 kts 230°
2026-05-03 22:27 46.53407 154.45190 34013 ft 489 kts 230°
2026-05-03 22:28 46.48976 154.37730 34013 ft 489 kts 230°
2026-05-03 22:28 46.44555 154.30295 34013 ft 489 kts 229°
2026-05-03 22:29 46.40139 154.22875 34013 ft 489 kts 229°
2026-05-03 22:29 46.35706 154.15460 34013 ft 489 kts 229°
2026-05-03 22:30 46.31246 154.08032 34013 ft 489 kts 229°
2026-05-03 22:30 46.26819 154.00682 34013 ft 489 kts 229°
2026-05-03 22:31 46.22353 153.93288 34013 ft 489 kts 229°
2026-05-03 22:31 46.17886 153.85913 34013 ft 489 kts 229°
2026-05-03 22:32 46.13415 153.78552 34013 ft 489 kts 229°
2026-05-03 22:32 46.08965 153.71248 34014 ft 489 kts 229°
2026-05-03 22:33 46.04482 153.63910 34014 ft 489 kts 229°
2026-05-03 22:33 46.00008 153.56613 34014 ft 489 kts 229°
2026-05-03 22:34 45.95508 153.49300 34014 ft 489 kts 229°
2026-05-03 22:34 45.91026 153.42046 34014 ft 489 kts 229°
2026-05-03 22:35 45.86513 153.34769 34013 ft 489 kts 228°
2026-05-03 22:35 45.81988 153.27477 34014 ft 489 kts 228°
2026-05-03 22:36 45.77490 153.20264 34014 ft 489 kts 228°
2026-05-03 22:36 45.72960 153.13042 34013 ft 489 kts 228°
2026-05-03 22:37 45.68421 153.05835 34013 ft 489 kts 228°
2026-05-03 22:37 45.63880 152.98647 34013 ft 489 kts 228°
2026-05-03 22:38 45.59333 152.91469 34013 ft 489 kts 228°
2026-05-03 22:38 45.54790 152.84315 34013 ft 489 kts 228°
2026-05-03 22:39 45.50237 152.77165 34013 ft 489 kts 228°
2026-05-03 22:39 45.45694 152.70050 34013 ft 489 kts 228°
2026-05-03 22:40 45.41109 152.62886 34013 ft 489 kts 228°
2026-05-03 22:40 45.36552 152.55785 34013 ft 489 kts 228°
2026-05-03 22:41 45.31989 152.48694 34014 ft 489 kts 228°
2026-05-03 22:41 45.27421 152.41612 34014 ft 489 kts 228°
2026-05-03 22:42 45.22819 152.34497 34014 ft 489 kts 227°
2026-05-03 22:42 45.18265 152.27446 34013 ft 489 kts 227°
2026-05-03 22:43 45.13672 152.20358 34013 ft 489 kts 227°
2026-05-03 22:43 45.09086 152.13313 34013 ft 489 kts 227°
2026-05-03 22:44 45.04474 152.06251 34013 ft 489 kts 227°
2026-05-03 22:44 44.99893 151.99257 34013 ft 489 kts 227°
2026-05-03 22:45 44.95287 151.92244 34013 ft 489 kts 227°
2026-05-03 22:45 44.90679 151.85243 34014 ft 489 kts 227°
2026-05-03 22:46 44.86034 151.78239 34013 ft 489 kts 227°
2026-05-03 22:46 44.81402 151.71280 34013 ft 489 kts 227°
2026-05-03 22:47 44.76767 151.64310 34013 ft 489 kts 227°
2026-05-03 22:47 44.72164 151.57394 34013 ft 489 kts 227°
2026-05-03 22:48 44.67530 151.50447 34013 ft 489 kts 227°
2026-05-03 22:48 44.62895 151.43514 34013 ft 489 kts 227°
2026-05-03 22:49 44.58249 151.36581 34013 ft 489 kts 227°
2026-05-03 22:49 44.53601 151.29642 34013 ft 489 kts 226°
2026-05-03 22:50 44.48960 151.22723 34013 ft 489 kts 226°
2026-05-03 22:50 44.44323 151.15843 34013 ft 489 kts 226°
2026-05-03 22:51 44.39664 151.08954 34013 ft 489 kts 226°
2026-05-03 22:51 44.35009 151.02092 34013 ft 489 kts 226°
2026-05-03 22:52 44.30339 150.95226 34013 ft 489 kts 226°
2026-05-03 22:52 44.25673 150.88382 34013 ft 489 kts 226°
2026-05-03 22:53 44.21000 150.81545 34013 ft 489 kts 226°
2026-05-03 22:53 44.16327 150.74725 34013 ft 489 kts 226°
2026-05-03 22:54 44.11646 150.67909 34014 ft 489 kts 226°
2026-05-03 22:54 44.06952 150.61092 34014 ft 489 kts 226°
2026-05-03 22:55 44.02257 150.54291 34014 ft 489 kts 226°
2026-05-03 22:55 43.97566 150.47513 34014 ft 489 kts 226°
2026-05-03 22:56 43.92860 150.40729 34014 ft 489 kts 226°
2026-05-03 22:56 43.88177 150.34001 34014 ft 489 kts 225°
2026-05-03 22:57 43.83435 150.27214 34014 ft 489 kts 226°
2026-05-03 22:57 43.78726 150.20477 34014 ft 489 kts 226°
2026-05-03 22:58 43.74008 150.13742 34013 ft 488 kts 226°
2026-05-03 22:58 43.69313 150.07056 34013 ft 488 kts 226°
2026-05-03 22:59 43.64579 150.00330 34013 ft 488 kts 226°
2026-05-03 22:59 43.59864 149.93646 34013 ft 488 kts 226°
2026-05-03 23:00 43.55137 149.86961 34013 ft 488 kts 226°
2026-05-03 23:00 43.50401 149.80281 34013 ft 488 kts 226°
2026-05-03 23:01 43.45670 149.73622 34013 ft 488 kts 226°
2026-05-03 23:01 43.40937 149.66978 34013 ft 488 kts 226°
2026-05-03 23:02 43.36164 149.60290 34013 ft 488 kts 226°
2026-05-03 23:02 43.31420 149.53662 34013 ft 488 kts 226°
2026-05-03 23:03 43.26667 149.47037 34014 ft 489 kts 226°
2026-05-03 23:03 43.21941 149.40463 34014 ft 489 kts 226°
2026-05-03 23:04 43.17292 149.34012 34014 ft 489 kts 225°
2026-05-03 23:04 43.12526 149.27385 34013 ft 489 kts 225°
2026-05-03 23:05 43.07753 149.20775 34013 ft 489 kts 225°
2026-05-03 23:05 43.03010 149.14233 34013 ft 489 kts 225°
2026-05-03 23:06 42.98242 149.07678 34013 ft 489 kts 225°
2026-05-03 23:06 42.93443 149.01097 34013 ft 489 kts 225°
2026-05-03 23:07 42.88676 148.94580 34013 ft 489 kts 225°
2026-05-03 23:07 42.83865 148.88055 34013 ft 489 kts 225°
2026-05-03 23:08 42.79050 148.81525 34013 ft 489 kts 225°
2026-05-03 23:08 42.74283 148.75056 34013 ft 489 kts 225°
2026-05-03 23:09 42.69486 148.68558 34013 ft 489 kts 225°
2026-05-03 23:09 42.64659 148.62032 34013 ft 489 kts 225°
2026-05-03 23:10 42.59857 148.55554 34013 ft 489 kts 225°
2026-05-03 23:10 42.55049 148.49083 34013 ft 489 kts 225°
2026-05-03 23:11 42.50237 148.42622 34013 ft 489 kts 225°
2026-05-03 23:11 42.45419 148.36166 34013 ft 489 kts 225°
2026-05-03 23:12 42.40720 148.29868 34013 ft 489 kts 224°
2026-05-03 23:12 42.35898 148.23413 34013 ft 489 kts 224°
2026-05-03 23:13 42.31088 148.17009 34013 ft 489 kts 224°
2026-05-03 23:13 42.26258 148.10602 34013 ft 489 kts 224°
2026-05-03 23:14 42.21399 148.04175 34013 ft 489 kts 224°
2026-05-03 23:14 42.16581 147.97823 34013 ft 489 kts 224°
2026-05-03 23:15 42.11726 147.91447 34013 ft 489 kts 224°
2026-05-03 23:15 42.06853 147.85053 34013 ft 489 kts 224°
2026-05-03 23:16 42.02048 147.78700 34014 ft 489 kts 224°
2026-05-03 23:16 41.97202 147.72322 34014 ft 489 kts 224°
2026-05-03 23:17 41.92333 147.65955 34014 ft 489 kts 224°
2026-05-03 23:17 41.87494 147.59663 34013 ft 489 kts 224°
2026-05-03 23:18 41.82590 147.53337 34013 ft 489 kts 224°
2026-05-03 23:18 41.77725 147.47054 34013 ft 489 kts 224°
2026-05-03 23:19 41.72825 147.40729 34013 ft 489 kts 224°
2026-05-03 23:19 41.68068 147.34595 34013 ft 489 kts 224°
2026-05-03 23:20 41.63207 147.28311 34013 ft 489 kts 224°
2026-05-03 23:20 41.58337 147.22035 34013 ft 489 kts 224°
2026-05-03 23:21 41.53436 147.15747 34013 ft 489 kts 224°
2026-05-03 23:21 41.48547 147.09494 34013 ft 489 kts 224°
2026-05-03 23:22 41.41196 147.00120 34013 ft 489 kts 224°
2026-05-03 23:22 41.36322 146.93922 34013 ft 489 kts 224°
2026-05-03 23:23 41.31393 146.87671 34013 ft 489 kts 224°
2026-05-03 23:23 41.26494 146.81470 34013 ft 489 kts 224°
2026-05-03 23:24 41.21595 146.75282 34013 ft 488 kts 224°
2026-05-03 23:24 41.16664 146.69067 34014 ft 488 kts 224°
2026-05-03 23:25 41.11763 146.62904 34014 ft 488 kts 224°
2026-05-03 23:25 41.06859 146.56751 34014 ft 488 kts 224°
2026-05-03 23:26 41.01918 146.50563 34014 ft 488 kts 224°
2026-05-03 23:26 40.97007 146.44428 34014 ft 488 kts 224°
2026-05-03 23:27 40.92085 146.38290 34014 ft 488 kts 224°
2026-05-03 23:27 40.87133 146.32136 34014 ft 488 kts 223°
2026-05-03 23:28 40.82215 146.26038 34014 ft 488 kts 223°
2026-05-03 23:28 40.77250 146.19890 34013 ft 488 kts 223°
2026-05-03 23:29 40.72330 146.13808 34013 ft 488 kts 223°
2026-05-03 23:29 40.67374 146.07695 34013 ft 488 kts 223°
2026-05-03 23:30 40.62422 146.01601 34013 ft 488 kts 223°
2026-05-03 23:30 40.57465 145.95512 34013 ft 488 kts 223°
2026-05-03 23:31 40.52519 145.89450 34013 ft 488 kts 223°
2026-05-03 23:31 40.47574 145.83401 34013 ft 488 kts 223°
2026-05-03 23:32 40.42620 145.77356 34013 ft 488 kts 223°
2026-05-03 23:32 40.37667 145.71324 34013 ft 488 kts 223°
2026-05-03 23:33 40.32683 145.65268 34013 ft 488 kts 223°
2026-05-03 23:33 40.27719 145.59247 34013 ft 488 kts 223°
2026-05-03 23:34 40.22757 145.53241 34014 ft 488 kts 223°
2026-05-03 23:34 40.17777 145.47227 34014 ft 488 kts 223°
2026-05-03 23:35 40.12801 145.41231 34014 ft 488 kts 223°
2026-05-03 23:35 40.07818 145.35237 34014 ft 488 kts 223°
2026-05-03 23:36 40.02972 145.29398 34013 ft 488 kts 222°
2026-05-03 23:36 39.97989 145.23407 34013 ft 488 kts 222°
2026-05-03 23:37 39.92990 145.17423 34013 ft 488 kts 222°
2026-05-03 23:37 39.88009 145.11487 34013 ft 488 kts 222°
2026-05-03 23:38 39.82991 145.05550 34013 ft 488 kts 222°
2026-05-03 23:38 39.77964 144.99599 34013 ft 488 kts 222°
2026-05-03 23:39 39.72961 144.93675 34013 ft 488 kts 222°
2026-05-03 23:39 39.67955 144.87756 34013 ft 488 kts 222°
2026-05-03 23:40 39.62949 144.81847 34013 ft 488 kts 222°
2026-05-03 23:40 39.57965 144.75975 34013 ft 488 kts 222°
2026-05-03 23:41 39.52949 144.70079 34013 ft 488 kts 222°
2026-05-03 23:41 39.47905 144.64162 34013 ft 488 kts 222°
2026-05-03 23:42 39.42897 144.58298 34013 ft 488 kts 222°
2026-05-03 23:42 39.37873 144.52428 34013 ft 488 kts 222°
2026-05-03 23:43 39.32861 144.46584 34013 ft 488 kts 222°
2026-05-03 23:43 39.27811 144.40706 34014 ft 488 kts 222°
2026-05-03 23:44 39.22770 144.34853 34014 ft 488 kts 221°
2026-05-03 23:44 39.17876 144.29155 34013 ft 488 kts 222°
2026-05-03 23:45 39.12858 144.23331 34013 ft 488 kts 221°
2026-05-03 23:45 39.07818 144.17506 34013 ft 488 kts 221°
2026-05-03 23:46 39.02764 144.11687 34013 ft 488 kts 221°
2026-05-03 23:46 38.97707 144.05875 34013 ft 488 kts 221°
2026-05-03 23:47 38.92682 144.00114 34013 ft 488 kts 221°
2026-05-03 23:47 38.87590 143.94301 34013 ft 488 kts 221°
2026-05-03 23:48 38.82550 143.88582 34013 ft 488 kts 221°
2026-05-03 23:48 38.77477 143.82822 34013 ft 488 kts 221°
2026-05-03 23:49 38.72391 143.77051 34013 ft 488 kts 221°
2026-05-03 23:49 38.67306 143.71355 34012 ft 488 kts 219°
2026-05-03 23:50 38.62816 143.67001 34012 ft 488 kts 214°
2026-05-03 23:50 38.56038 143.61798 34012 ft 488 kts 207°
2026-05-03 23:51 38.49875 143.58186 34013 ft 488 kts 203°
2026-05-03 23:51 38.43683 143.54807 34013 ft 488 kts 203°
2026-05-03 23:52 38.37442 143.51395 34013 ft 488 kts 203°
2026-05-03 23:52 38.31213 143.47984 34013 ft 488 kts 204°
2026-05-03 23:53 38.25016 143.44595 34013 ft 488 kts 204°
2026-05-03 23:53 38.18780 143.41191 34014 ft 488 kts 204°
2026-05-03 23:54 38.12544 143.37795 34014 ft 488 kts 204°
2026-05-03 23:54 38.06332 143.34416 34014 ft 488 kts 203°
2026-05-03 23:55 38.00100 143.31010 34013 ft 488 kts 203°
2026-05-03 23:55 37.93873 143.27638 34013 ft 488 kts 202°
2026-05-03 23:56 37.87681 143.24304 34013 ft 488 kts 202°
2026-05-03 23:56 37.81417 143.20929 34013 ft 488 kts 203°
2026-05-03 23:57 37.75220 143.17596 34013 ft 488 kts 203°
2026-05-03 23:57 37.68980 143.14249 34013 ft 488 kts 203°
2026-05-03 23:58 37.62739 143.10877 34013 ft 488 kts 203°
2026-05-03 23:58 37.56522 143.07535 34013 ft 489 kts 203°
2026-05-03 23:59 37.50292 143.04208 34013 ft 489 kts 203°
2026-05-03 23:59 37.44036 143.00882 34013 ft 489 kts 202°
2026-05-04 00:00 37.37811 142.97584 34013 ft 489 kts 202°
2026-05-04 00:00 37.31567 142.94278 34013 ft 489 kts 203°
2026-05-04 00:01 37.25323 142.90956 34013 ft 489 kts 203°
2026-05-04 00:01 37.19123 142.87680 34013 ft 489 kts 203°
2026-05-04 00:02 37.12895 142.84331 34013 ft 489 kts 205°
2026-05-04 00:02 37.06897 142.80368 34014 ft 488 kts 210°
2026-05-04 00:03 37.01008 142.76183 34014 ft 488 kts 210°
2026-05-04 00:03 36.95113 142.72017 34014 ft 488 kts 210°
2026-05-04 00:04 36.89240 142.67882 34013 ft 488 kts 209°
2026-05-04 00:04 36.83300 142.63731 34013 ft 488 kts 209°
2026-05-04 00:05 36.77403 142.59613 34013 ft 488 kts 209°
2026-05-04 00:05 36.71496 142.55486 34013 ft 488 kts 210°
2026-05-04 00:06 36.65593 142.51364 34013 ft 488 kts 210°
2026-05-04 00:06 36.59717 142.47270 34013 ft 488 kts 210°
2026-05-04 00:07 36.53794 142.43150 34013 ft 488 kts 210°
2026-05-04 00:07 36.47913 142.39069 34013 ft 488 kts 209°
2026-05-04 00:08 36.41994 142.34970 34013 ft 488 kts 209°
2026-05-04 00:08 36.36285 142.31007 34013 ft 488 kts 209°
2026-05-04 00:09 36.30399 142.26936 34013 ft 488 kts 209°
2026-05-04 00:09 36.24484 142.22852 34013 ft 488 kts 209°
2026-05-04 00:10 36.18554 142.18773 34013 ft 488 kts 209°
2026-05-04 00:10 36.12851 142.14345 34012 ft 488 kts 217°
2026-05-04 00:11 36.07905 142.08667 34011 ft 488 kts 229°
2026-05-04 00:11 36.03930 142.01894 34011 ft 488 kts 240°
2026-05-04 00:12 36.00956 141.94383 34013 ft 488 kts 246°
2026-05-04 00:12 35.98251 141.86725 34013 ft 488 kts 248°
2026-05-04 00:13 35.96162 141.78778 34012 ft 488 kts 256°
2026-05-04 00:13 35.94929 141.70548 33998 ft 489 kts 263°
2026-05-04 00:14 35.94640 141.66367 33602 ft 491 kts 267°
2026-05-04 00:14 35.94566 141.62192 32710 ft 496 kts 270°
2026-05-04 00:14 35.94580 141.57909 31760 ft 499 kts 270°
2026-05-04 00:14 35.94609 141.53653 30952 ft 499 kts 271°
2026-05-04 00:15 35.94637 141.49379 30170 ft 498 kts 270°
2026-05-04 00:15 35.94658 141.45152 29400 ft 497 kts 270°
2026-05-04 00:15 35.94672 141.40884 28617 ft 496 kts 270°
2026-05-04 00:15 35.94682 141.36647 27822 ft 495 kts 270°
2026-05-04 00:16 35.94687 141.32440 27169 ft 490 kts 270°
2026-05-04 00:16 35.94691 141.28299 26679 ft 482 kts 270°
2026-05-04 00:16 35.94698 141.24196 26124 ft 477 kts 270°
2026-05-04 00:16 35.94708 141.20158 25617 ft 471 kts 270°
2026-05-04 00:17 35.94720 141.16115 25124 ft 464 kts 270°
2026-05-04 00:17 35.94725 141.12215 24652 ft 458 kts 270°
2026-05-04 00:17 35.94726 141.08311 24181 ft 453 kts 270°
2026-05-04 00:17 35.94726 141.04462 23715 ft 448 kts 270°
2026-05-04 00:18 35.94752 141.00638 23243 ft 443 kts 273°
2026-05-04 00:18 35.95195 140.96924 22777 ft 438 kts 284°
2026-05-04 00:18 35.96169 140.93405 22315 ft 434 kts 294°
2026-05-04 00:18 35.97598 140.90164 21865 ft 429 kts 301°
2026-05-04 00:19 35.99199 140.87025 21410 ft 425 kts 303°
2026-05-04 00:19 36.00777 140.83998 20965 ft 422 kts 303°
2026-05-04 00:19 36.02341 140.80980 20521 ft 418 kts 303°
2026-05-04 00:19 36.03889 140.77960 20074 ft 415 kts 302°
2026-05-04 00:20 36.05413 140.74970 19632 ft 411 kts 302°
2026-05-04 00:20 36.06930 140.71985 19187 ft 408 kts 302°
2026-05-04 00:20 36.08421 140.69051 18750 ft 405 kts 302°
2026-05-04 00:20 36.09929 140.66097 18312 ft 402 kts 302°
2026-05-04 00:21 36.11406 140.63197 17879 ft 400 kts 302°
2026-05-04 00:21 36.12880 140.60290 17443 ft 397 kts 302°
2026-05-04 00:21 36.14325 140.57431 17013 ft 395 kts 302°
2026-05-04 00:21 36.15773 140.54559 16580 ft 392 kts 302°
2026-05-04 00:22 36.17217 140.51697 16145 ft 390 kts 302°
2026-05-04 00:22 36.18636 140.48888 15719 ft 387 kts 302°
2026-05-04 00:22 36.20151 140.46127 15280 ft 385 kts 309°
2026-05-04 00:22 36.21950 140.43712 14870 ft 387 kts 318°
2026-05-04 00:23 36.24110 140.41606 14836 ft 403 kts 326°
2026-05-04 00:23 36.26458 140.39687 14860 ft 406 kts 328°
2026-05-04 00:23 36.28840 140.37804 14886 ft 407 kts 328°
2026-05-04 00:23 36.31205 140.35934 14911 ft 407 kts 328°
2026-05-04 00:24 36.33602 140.34026 14937 ft 407 kts 327°
2026-05-04 00:24 36.35969 140.32111 14960 ft 407 kts 324°
2026-05-04 00:24 36.38016 140.29729 14970 ft 407 kts 306°
2026-05-04 00:24 36.39321 140.26616 14988 ft 408 kts 287°
2026-05-04 00:25 36.39711 140.23187 14997 ft 408 kts 268°
2026-05-04 00:25 36.39252 140.19719 15010 ft 408 kts 256°
2026-05-04 00:25 36.38535 140.16306 15007 ft 408 kts 255°
2026-05-04 00:25 36.37810 140.12939 15005 ft 408 kts 255°
2026-05-04 00:26 36.37101 140.09515 15003 ft 408 kts 256°
2026-05-04 00:26 36.36354 140.06154 14893 ft 408 kts 249°
2026-05-04 00:26 36.34946 140.03142 14335 ft 407 kts 229°
2026-05-04 00:26 36.32793 140.00913 13820 ft 402 kts 209°
2026-05-04 00:27 36.30213 139.99705 13344 ft 396 kts 190°
2026-05-04 00:27 36.27528 139.99394 13000 ft 387 kts 182°
2026-05-04 00:27 36.24880 139.99272 12864 ft 372 kts 182°
2026-05-04 00:27 36.22330 139.99161 12730 ft 359 kts 182°
2026-05-04 00:28 36.19927 139.99037 12609 ft 346 kts 182°
2026-05-04 00:28 36.17559 139.98898 12501 ft 333 kts 183°
2026-05-04 00:28 36.15277 139.98753 12406 ft 321 kts 183°
2026-05-04 00:28 36.13090 139.98608 12325 ft 309 kts 183°
2026-05-04 00:29 36.11006 139.98467 12254 ft 297 kts 183°
2026-05-04 00:29 36.08984 139.98331 12193 ft 287 kts 183°
2026-05-04 00:29 36.06979 139.98369 11946 ft 286 kts 173°
2026-05-04 00:29 36.05068 139.98859 11667 ft 284 kts 162°
2026-05-04 00:30 36.03213 139.99652 11406 ft 282 kts 160°
2026-05-04 00:30 36.01378 140.00505 11142 ft 280 kts 159°
2026-05-04 00:30 35.99566 140.01352 10882 ft 278 kts 159°
2026-05-04 00:30 35.97764 140.02184 10623 ft 277 kts 160°
2026-05-04 00:31 35.95963 140.03009 10365 ft 275 kts 160°
2026-05-04 00:31 35.94167 140.03825 10107 ft 274 kts 160°
2026-05-04 00:31 35.92409 140.04622 9855 ft 272 kts 160°
2026-05-04 00:31 35.90630 140.05426 9601 ft 271 kts 160°
2026-05-04 00:32 35.88862 140.06224 9348 ft 270 kts 160°
2026-05-04 00:32 35.87113 140.07007 9098 ft 268 kts 160°
2026-05-04 00:32 35.85371 140.07788 8850 ft 267 kts 160°
2026-05-04 00:32 35.83626 140.08569 8601 ft 266 kts 160°
2026-05-04 00:33 35.81903 140.09343 8354 ft 265 kts 160°
2026-05-04 00:33 35.78438 140.10901 7860 ft 263 kts 160°
2026-05-04 00:33 35.76747 140.11661 7619 ft 262 kts 160°
2026-05-04 00:34 35.75023 140.12425 7366 ft 262 kts 163°
2026-05-04 00:34 35.73238 140.12613 7088 ft 261 kts 191°
2026-05-04 00:34 35.71600 140.11745 6833 ft 259 kts 219°
2026-05-04 00:34 35.70476 140.10048 6581 ft 258 kts 246°
2026-05-04 00:35 35.70107 140.07932 6327 ft 257 kts 273°
2026-05-04 00:35 35.70562 140.05814 6067 ft 256 kts 300°
2026-05-04 00:35 35.71722 140.04205 5807 ft 256 kts 326°
2026-05-04 00:35 35.73364 140.03398 5542 ft 255 kts 352°
2026-05-04 00:36 35.75113 140.03151 5290 ft 255 kts 350°
2026-05-04 00:36 35.76776 140.02438 5039 ft 253 kts 327°
2026-05-04 00:36 35.77984 140.00958 5016 ft 239 kts 305°
2026-05-04 00:36 35.78775 139.99239 4988 ft 226 kts 284°
2026-05-04 00:37 35.78773 139.97401 4983 ft 212 kts 251°
2026-05-04 00:37 35.78036 139.95926 4983 ft 196 kts 221°
2026-05-04 00:37 35.76985 139.94937 4998 ft 187 kts 215°
2026-05-04 00:37 35.75894 139.94025 4681 ft 193 kts 214°
2026-05-04 00:38 35.74776 139.93109 4327 ft 195 kts 214°
2026-05-04 00:38 35.73648 139.92178 4038 ft 192 kts 214°
2026-05-04 00:38 35.72581 139.91281 3788 ft 183 kts 215°
2026-05-04 00:38 35.71566 139.90416 3548 ft 173 kts 215°
2026-05-04 00:39 35.70616 139.89600 3322 ft 160 kts 215°
2026-05-04 00:39 35.69725 139.88837 3116 ft 154 kts 215°
2026-05-04 00:39 35.68853 139.88091 2922 ft 153 kts 215°
2026-05-04 00:39 35.67979 139.87343 2725 ft 153 kts 215°
2026-05-04 00:40 35.67108 139.86598 2526 ft 152 kts 215°
2026-05-04 00:40 35.66239 139.85855 2324 ft 152 kts 215°
2026-05-04 00:40 35.65371 139.85110 2119 ft 152 kts 215°
2026-05-04 00:40 35.64518 139.84380 1916 ft 151 kts 215°
2026-05-04 00:41 35.63658 139.83643 1711 ft 151 kts 215°
2026-05-04 00:41 35.62799 139.82906 1508 ft 150 kts 215°
2026-05-04 00:41 35.61937 139.82165 1305 ft 150 kts 215°
2026-05-04 00:41 35.61079 139.81430 1105 ft 149 kts 216°
2026-05-04 00:42 35.60235 139.80705 910 ft 149 kts 216°
2026-05-04 00:42 35.59388 139.79977 714 ft 149 kts 216°
2026-05-04 00:42 35.58537 139.79248 516 ft 148 kts 216°
2026-05-04 00:42 35.57692 139.78522 318 ft 147 kts 216°
2026-05-04 00:43 35.56858 139.77808 121 ft 145 kts 216°
2026-05-04 00:43 35.56074 139.77127 50 ft 129 kts 215°
2026-05-04 00:43 35.55486 139.76623 49 ft 60 kts 213°
2026-05-04 00:43 35.55120 139.76465 49 ft 48 kts 160°
2026-05-04 00:44 35.54939 139.76703 49 ft 26 kts 137°
2026-05-04 00:44 35.54895 139.76741 49 ft 0 kts 150°